Content
SEND FEEDBACK

Daily
Averages
Monthly
Summary
United States of America

BARRINGTON, ILLINOIS


Home > North America > United States > Illinois
Elevation: 810 feet     Latitude: 42 10N     Longitude: 088 09W

WEATHER
 
SELECT A DAY
Number of Records: 196,660;   Date Range: 1/1/95 - 8/28/14
 
SHARE

PRINT THIS DATA

[ ← Previous Day ]
WEATHER ALMANAC - JANUARY 27, 2013
[ Next Day → ]
[ °C ]   °F
Weather ElementAverageHighLow
Temperature30.5 °F37 °F (11:51 pm)23 °F (1:51 am)
Dewpoint25.6 °F36 °F (11:51 pm)17.1 °F (1:51 am)
Humidity82.4 %100 % (10:51 pm)64 % (12:44 pm)
Barometer30.12 in30.38 in (1:51 am)29.90 in (11:23 pm)
Wind Speed15.3 mph24.2 mph (4:51 pm)
Wind Gust33.4 mph (4:51 pm)
Weather ElementAverage
Visibility5.9 mi
Wind DirectionSSE (162.1 °)

Weather ElementTotal
Precipitation---
Heating Degree Days35 (Base 65)
Averaged from 43 records on January 27, 2013
WEATHER CONDITIONS BREAKOUT
WIND DIRECTION BREAKOUT
WEATHER BY HOUR - JANUARY 27, 2013
[ °C ]   °F
Local TimeTemperatureDewpointHumidityBarometerVisibilityWind DirectionWind SpeedGust SpeedPrecipitationEventsConditions
1:51 AM23.0 °F17.1 °F78 %30.38 in10.0 miSouth (170°)12.7 mphScattered Clouds
2:51 AM23.0 °F17.6 °F80 %30.35 in10.0 miSouth (170°)10.4 mphMostly Cloudy
3:51 AM23.0 °F17.1 °F78 %30.36 in10.0 miSouth (170°)13.8 mphMostly Cloudy
4:51 AM23.0 °F17.1 °F78 %30.33 in10.0 miSSE (160°)10.4 mphMostly Cloudy
5:51 AM24.8 °F17.6 °F74 %30.30 in10.0 miSSE (160°)13.8 mphOvercast
6:51 AM25.0 °F18.0 °F75 %30.32 in10.0 miSSE (150°)8.1 mphOvercast
7:51 AM26.1 °F18.0 °F71 %30.33 in8.0 miSSE (160°)11.5 mphOvercast
8:51 AM27.0 °F19.0 °F72 %30.32 in8.0 miSouth (170°)11.5 mphOvercast
9:51 AM28.0 °F19.0 °F69 %30.35 in8.0 miSouth (180°)10.4 mphOvercast
10:27 AM28.4 °F19.4 °F69 %30.29 in8.0 miSouth (180°)12.7 mphSnowLight Snow
10:51 AM30.0 °F19.9 °F66 %30.31 in7.0 miSouth (170°)12.7 mphOvercast
11:51 AM31.1 °F21.0 °F66 %30.25 in8.0 miSSE (150°)13.8 mphOvercast
12:44 PM32.0 °F21.2 °F64 %30.18 in7.0 miSSE (150°)15.0 mphLight Ice Pellets
12:51 PM31.1 °F21.0 °F66 %30.21 in6.0 miSSE (150°)15.0 mphLight Ice Pellets
1:37 PM32.0 °F21.2 °F64 %30.15 in6.0 miSSE (160°)13.8 mphSnowLight Snow
1:43 PM32.0 °F23.0 °F69 %30.16 in3.0 miSSE (160°)13.8 mphSnowLight Snow
1:51 PM31.1 °F23.0 °F72 %30.18 in3.0 miSSE (160°)13.8 mphSnowLight Snow
2:08 PM32.0 °F24.8 °F75 %30.14 in6.0 miSSE (150°)11.5 mphLight Ice Pellets
2:20 PM32.0 °F24.8 °F75 %30.14 in5.0 miSE (140°)11.5 mphIce Pellets
2:29 PM30.2 °F24.8 °F80 %30.13 in6.0 miSE (130°)11.5 mphLight Ice Pellets
2:51 PM30.9 °F25.0 °F79 %30.15 in6.0 miSE (140°)13.8 mphRainLight Freezing Rain
3:08 PM30.2 °F26.6 °F86 %30.11 in5.0 miSE (140°)13.8 mphRainLight Freezing Rain
3:34 PM30.2 °F26.6 °F86 %30.07 in4.0 miSSE (150°)17.3 mphRainLight Freezing Rain
3:51 PM30.9 °F27.0 °F85 %30.11 in4.0 miSSE (150°)21.9 mphRainLight Freezing Rain
4:16 PM30.2 °F28.4 °F93 %30.07 in3.0 miSSE (150°)20.7 mph28.8 mphRainLight Freezing Rain
4:41 PM30.2 °F28.4 °F93 %30.04 in2.5 miSSE (150°)21.9 mphRainLight Freezing Rain
4:51 PM30.9 °F28.9 °F92 %30.04 in2.5 miSSE (150°)24.2 mph33.4 mphRainLight Freezing Rain
5:20 PM30.2 °F28.4 °F93 %30.02 in4.0 miSSE (150°)18.4 mph24.2 mphRainLight Freezing Rain
5:34 PM30.2 °F28.4 °F93 %30.00 in6.0 miSSE (160°)21.9 mphRainLight Freezing Rain
5:51 PM32.0 °F28.0 °F85 %30.04 in7.0 miSSE (160°)18.4 mphOvercast
6:11 PM32.0 °F28.4 °F87 %29.99 in7.0 miSSE (150°)17.3 mphRainLight Freezing Rain
6:51 PM32.0 °F30.0 °F92 %30.00 in5.0 miSSE (160°)17.3 mph28.8 mphRain-ThunderstormLight Freezing Rain
6:59 PM32.0 °F30.2 °F93 %29.97 in6.0 miSSE (160°)17.3 mph28.8 mphRain-ThunderstormLight Freezing Rain
7:17 PM33.8 °F30.2 °F87 %29.97 in6.0 miSouth (170°)19.6 mph27.6 mphRainLight Freezing Rain
7:51 PM33.1 °F30.0 °F89 %29.97 in7.0 miSouth (170°)17.3 mph24.2 mphRainLight Freezing Rain
8:38 PM33.8 °F32.0 °F93 %29.95 in5.0 miSouth (170°)16.1 mphRainLight Rain
8:51 PM34.0 °F32.0 °F92 %29.97 in5.0 miSouth (170°)17.3 mph21.9 mphRainLight Rain
9:23 PM33.8 °F32.0 °F93 %29.94 in4.0 miSouth (180°)16.1 mphRainRain
9:51 PM34.0 °F33.1 °F96 %29.96 in4.0 miSouth (180°)17.3 mphRainRain
10:51 PM34.0 °F34.0 °F100 %29.94 in4.0 miSouth (190°)17.3 mphRainLight Rain
11:23 PM35.6 °F35.6 °F100 %29.90 in3.0 miSouth (190°)15.0 mphLight Drizzle
11:34 PM35.6 °F35.6 °F100 %29.90 in2.0 miSouth (190°)15.0 mphLight Drizzle
11:51 PM37.0 °F36.0 °F96 %29.92 in1.5 miSSW (200°)15.0 mphLight Drizzle
Hourly data recorded from KORD, located miles away from Barrington, Illinois







STORIES FROM OUR PARTNERS